Time,TemperatureF,DewpointF,PressureIn,WindDirection,WindDirectionDegrees,WindSpeedMPH,WindSpeedGustMPH,Humidity,HourlyPrecipIn,Conditions,Clouds,dailyrainin,SoftwareType,DateUTC
2013-02-04 00:02:00,18.2,16.0,30.13,SW,234,2.0,6.0,89,0.00,,,0.00,weatherlink.com 1.10,2013-02-04 05:02:00,
2013-02-04 00:17:00,18.0,15.0,30.13,WSW,250,2.0,4.0,87,0.00,,,0.00,weatherlink.com 1.10,2013-02-04 05:17:00,
2013-02-04 00:32:00,17.7,15.0,30.13,WSW,253,0.0,3.0,87,0.00,,,0.00,weatherlink.com 1.10,2013-02-04 05:32:00,
2013-02-04 00:46:00,17.0,14.0,30.13,WSW,250,1.0,4.0,86,0.00,,,0.00,weatherlink.com 1.10,2013-02-04 05:46:00,
2013-02-04 01:02:00,15.8,12.0,30.12,WSW,248,0.0,3.0,86,0.00,,,0.00,weatherlink.com 1.10,2013-02-04 06:02:00,
2013-02-04 01:17:00,14.8,12.0,30.12,WSW,248,0.0,4.0,87,0.00,,,0.00,weatherlink.com 1.10,2013-02-04 06:17:00,
2013-02-04 01:32:00,14.9,12.0,30.12,WSW,248,1.0,3.0,89,0.00,,,0.00,weatherlink.com 1.10,2013-02-04 06:32:00,
2013-02-04 01:47:00,15.6,13.0,30.12,WSW,248,0.0,1.0,90,0.00,,,0.00,weatherlink.com 1.10,2013-02-04 06:47:00,
2013-02-04 02:03:00,16.4,14.0,30.12,WSW,248,0.0,2.0,90,0.00,,,0.00,weatherlink.com 1.10,2013-02-04 07:03:00,
2013-02-04 02:17:00,17.2,15.0,30.12,WSW,248,0.0,2.0,90,0.00,,,0.00,weatherlink.com 1.10,2013-02-04 07:17:00,
2013-02-04 02:34:00,18.1,15.0,30.12,WSW,244,2.0,3.0,89,0.00,,,0.00,weatherlink.com 1.10,2013-02-04 07:34:00,
2013-02-04 02:50:00,18.8,16.0,30.11,WSW,244,0.0,3.0,88,0.00,,,0.00,weatherlink.com 1.10,2013-02-04 07:50:00,
2013-02-04 03:04:00,19.1,16.0,30.11,WSW,244,0.0,3.0,88,0.00,,,0.00,weatherlink.com 1.10,2013-02-04 08:04:00,
2013-02-04 03:22:00,19.4,17.0,30.11,WSW,244,0.0,2.0,89,0.00,,,0.00,weatherlink.com 1.10,2013-02-04 08:22:00,
2013-02-04 03:34:00,19.8,17.0,30.11,WSW,244,0.0,3.0,90,0.00,,,0.00,weatherlink.com 1.10,2013-02-04 08:34:00,
2013-02-04 03:49:00,20.7,19.0,30.10,SW,235,2.0,7.0,91,0.00,,,0.00,weatherlink.com 1.10,2013-02-04 08:49:00,
2013-02-04 04:04:00,21.5,20.0,30.10,SW,221,3.0,5.0,92,0.00,,,0.00,weatherlink.com 1.10,2013-02-04 09:04:00,
2013-02-04 04:21:00,21.7,20.0,30.09,WSW,249,1.0,5.0,92,0.00,,,0.00,weatherlink.com 1.10,2013-02-04 09:21:00,
2013-02-04 04:36:00,21.7,20.0,30.09,SSW,207,2.0,5.0,92,0.00,,,0.00,weatherlink.com 1.10,2013-02-04 09:36:00,
2013-02-04 04:51:00,21.7,20.0,30.07,South,187,2.0,5.0,92,0.00,,,0.00,weatherlink.com 1.10,2013-02-04 09:51:00,
2013-02-04 05:06:00,21.7,20.0,30.06,South,184,1.0,4.0,92,0.00,,,0.00,weatherlink.com 1.10,2013-02-04 10:06:00,
2013-02-04 05:21:00,21.5,20.0,30.06,South,189,3.0,5.0,92,0.00,,,0.00,weatherlink.com 1.10,2013-02-04 10:21:00,
2013-02-04 05:36:00,21.4,20.0,30.05,South,186,4.0,5.0,92,0.00,,,0.00,weatherlink.com 1.10,2013-02-04 10:36:00,
2013-02-04 05:51:00,21.6,20.0,30.04,South,186,4.0,6.0,92,0.00,,,0.00,weatherlink.com 1.10,2013-02-04 10:51:00,
2013-02-04 06:06:00,21.7,20.0,30.04,South,175,3.0,5.0,92,0.00,,,0.00,weatherlink.com 1.10,2013-02-04 11:06:00,
2013-02-04 06:22:00,21.9,20.0,30.03,SSE,165,3.0,5.0,92,0.00,,,0.00,weatherlink.com 1.10,2013-02-04 11:22:00,
2013-02-04 06:37:00,21.9,20.0,30.02,SSE,163,2.0,7.0,92,0.00,,,0.00,weatherlink.com 1.10,2013-02-04 11:37:00,
2013-02-04 06:52:00,22.0,20.0,30.02,South,172,3.0,6.0,91,0.00,,,0.00,weatherlink.com 1.10,2013-02-04 11:52:00,
2013-02-04 07:09:00,22.1,20.0,30.02,SE,144,1.0,7.0,90,0.00,,,0.00,weatherlink.com 1.10,2013-02-04 12:09:00,
2013-02-04 07:23:00,22.2,20.0,30.02,SSE,150,2.0,6.0,89,0.00,,,0.00,weatherlink.com 1.10,2013-02-04 12:23:00,
2013-02-04 07:39:00,22.3,19.0,30.01,SSE,148,6.0,6.0,88,0.00,,,0.00,weatherlink.com 1.10,2013-02-04 12:39:00,
2013-02-04 07:54:00,22.5,20.0,30.01,SSE,153,3.0,6.0,88,0.00,,,0.00,weatherlink.com 1.10,2013-02-04 12:54:00,
2013-02-04 08:09:00,22.7,19.0,30.00,South,186,3.0,7.0,87,0.00,,,0.00,weatherlink.com 1.10,2013-02-04 13:09:00,
2013-02-04 08:24:00,23.0,19.0,29.99,South,171,0.0,6.0,86,0.00,,,0.00,weatherlink.com 1.10,2013-02-04 13:24:00,
2013-02-04 08:39:00,23.4,20.0,29.99,SSE,155,2.0,6.0,85,0.00,,,0.00,weatherlink.com 1.10,2013-02-04 13:39:00,
2013-02-04 08:56:00,24.0,20.0,29.98,South,183,3.0,7.0,84,0.00,,,0.00,weatherlink.com 1.10,2013-02-04 13:56:00,
2013-02-04 09:11:00,24.8,20.0,29.97,South,170,6.0,6.0,83,0.00,,,0.00,weatherlink.com 1.10,2013-02-04 14:11:00,
2013-02-04 09:26:00,25.4,21.0,29.97,SE,132,4.0,7.0,82,0.00,,,0.00,weatherlink.com 1.10,2013-02-04 14:26:00,
2013-02-04 09:41:00,25.6,21.0,29.96,SE,137,7.0,7.0,82,0.00,,,0.00,weatherlink.com 1.10,2013-02-04 14:41:00,
2013-02-04 09:56:00,26.0,21.0,29.96,SE,130,5.0,9.0,81,0.00,,,0.00,weatherlink.com 1.10,2013-02-04 14:56:00,
2013-02-04 10:12:00,26.4,21.0,29.96,SE,127,4.0,7.0,81,0.00,,,0.00,weatherlink.com 1.10,2013-02-04 15:12:00,
2013-02-04 10:27:00,26.8,21.0,29.96,SE,139,2.0,7.0,79,0.00,,,0.00,weatherlink.com 1.10,2013-02-04 15:27:00,
2013-02-04 10:41:00,27.3,21.0,29.96,ESE,119,3.0,7.0,78,0.00,,,0.00,weatherlink.com 1.10,2013-02-04 15:41:00,
2013-02-04 10:57:00,27.7,21.0,29.95,SE,134,4.0,7.0,77,0.00,,,0.00,weatherlink.com 1.10,2013-02-04 15:57:00,
2013-02-04 11:12:00,27.8,21.0,29.95,SE,131,6.0,8.0,77,0.01,,,0.01,weatherlink.com 1.10,2013-02-04 16:12:00,
2013-02-04 11:27:00,28.1,22.0,29.95,SE,146,3.0,7.0,77,0.01,,,0.01,weatherlink.com 1.10,2013-02-04 16:27:00,
2013-02-04 11:43:00,28.0,22.0,29.95,SSE,167,3.0,8.0,78,0.01,,,0.01,weatherlink.com 1.10,2013-02-04 16:43:00,
2013-02-04 11:57:00,28.0,23.0,29.94,SE,132,3.0,7.0,80,0.01,,,0.01,weatherlink.com 1.10,2013-02-04 16:57:00,
2013-02-04 12:14:00,28.3,23.0,29.93,SE,132,4.0,7.0,81,0.00,,,0.01,weatherlink.com 1.10,2013-02-04 17:14:00,
2013-02-04 12:30:00,28.4,24.0,29.92,SSE,147,5.0,6.0,82,0.00,,,0.01,weatherlink.com 1.10,2013-02-04 17:30:00,
2013-02-04 12:43:00,28.5,24.0,29.91,SSE,154,3.0,5.0,83,0.00,,,0.01,weatherlink.com 1.10,2013-02-04 17:43:00,
2013-02-04 12:59:00,28.6,24.0,29.91,SE,140,3.0,6.0,84,0.00,,,0.01,weatherlink.com 1.10,2013-02-04 17:59:00,
2013-02-04 13:14:00,28.4,25.0,29.90,SW,219,3.0,7.0,86,0.00,,,0.01,weatherlink.com 1.10,2013-02-04 18:14:00,
2013-02-04 13:29:00,28.4,25.0,29.89,South,179,2.0,8.0,88,0.01,,,0.02,weatherlink.com 1.10,2013-02-04 18:29:00,
2013-02-04 13:45:00,28.4,26.0,29.89,South,189,4.0,7.0,89,0.01,,,0.02,weatherlink.com 1.10,2013-02-04 18:45:00,
2013-02-04 14:02:00,28.7,26.0,29.88,South,180,4.0,6.0,90,0.02,,,0.03,weatherlink.com 1.10,2013-02-04 19:02:00,
2013-02-04 14:17:00,28.9,26.0,29.88,SE,144,6.0,7.0,90,0.01,,,0.03,weatherlink.com 1.10,2013-02-04 19:17:00,
2013-02-04 14:32:00,29.0,27.0,29.87,SSE,159,2.0,5.0,91,0.01,,,0.03,weatherlink.com 1.10,2013-02-04 19:32:00,
2013-02-04 14:46:00,29.5,27.0,29.87,SE,146,1.0,4.0,91,0.02,,,0.04,weatherlink.com 1.10,2013-02-04 19:46:00,
2013-02-04 15:01:00,30.2,28.0,29.87,SE,146,0.0,2.0,91,0.01,,,0.04,weatherlink.com 1.10,2013-02-04 20:01:00,
2013-02-04 15:17:00,31.7,29.0,29.86,East,85,3.0,5.0,89,0.01,,,0.04,weatherlink.com 1.10,2013-02-04 20:17:00,
2013-02-04 15:32:00,32.2,29.0,29.87,East,85,3.0,5.0,87,0.01,,,0.05,weatherlink.com 1.10,2013-02-04 20:32:00,
2013-02-04 15:47:00,32.6,29.0,29.86,East,79,3.0,7.0,86,0.01,,,0.05,weatherlink.com 1.10,2013-02-04 20:47:00,
2013-02-04 16:02:00,32.2,29.0,29.86,ENE,78,3.0,5.0,86,0.01,,,0.05,weatherlink.com 1.10,2013-02-04 21:02:00,
2013-02-04 16:17:00,31.8,28.0,29.87,ENE,65,2.0,7.0,85,0.01,,,0.05,weatherlink.com 1.10,2013-02-04 21:17:00,
2013-02-04 16:33:00,31.4,28.0,29.87,ENE,65,2.0,5.0,87,0.00,,,0.05,weatherlink.com 1.10,2013-02-04 21:33:00,
2013-02-04 16:47:00,31.2,28.0,29.87,ENE,65,2.0,5.0,87,0.00,,,0.05,weatherlink.com 1.10,2013-02-04 21:47:00,
2013-02-04 17:03:00,30.6,27.0,29.88,ENE,65,3.0,5.0,87,0.00,,,0.05,weatherlink.com 1.10,2013-02-04 22:03:00,
2013-02-04 17:19:00,30.2,27.0,29.88,ENE,64,3.0,5.0,88,0.00,,,0.05,weatherlink.com 1.10,2013-02-04 22:19:00,
2013-02-04 17:33:00,29.9,27.0,29.88,ENE,64,1.0,4.0,88,0.00,,,0.05,weatherlink.com 1.10,2013-02-04 22:33:00,
2013-02-04 17:50:00,29.9,27.0,29.88,ENE,64,2.0,4.0,88,0.00,,,0.05,weatherlink.com 1.10,2013-02-04 22:50:00,
2013-02-04 18:04:00,29.4,26.0,29.87,ENE,64,3.0,5.0,88,0.00,,,0.05,weatherlink.com 1.10,2013-02-04 23:04:00,
2013-02-04 18:20:00,28.3,25.0,29.86,ENE,64,2.0,3.0,87,0.00,,,0.05,weatherlink.com 1.10,2013-02-04 23:20:00,
2013-02-04 18:34:00,27.0,24.0,29.86,ENE,64,0.0,3.0,87,0.00,,,0.05,weatherlink.com 1.10,2013-02-04 23:34:00,
2013-02-04 18:50:00,25.9,23.0,29.87,ENE,64,2.0,2.0,89,0.00,,,0.05,weatherlink.com 1.10,2013-02-04 23:50:00,
2013-02-04 19:06:00,25.8,24.0,29.89,ENE,64,0.0,3.0,91,0.00,,,0.05,weatherlink.com 1.10,2013-02-05 00:06:00,
2013-02-04 19:21:00,25.9,24.0,29.91,ENE,63,3.0,5.0,91,0.00,,,0.05,weatherlink.com 1.10,2013-02-05 00:21:00,
2013-02-04 19:37:00,26.1,24.0,29.91,ENE,61,2.0,4.0,92,0.00,,,0.05,weatherlink.com 1.10,2013-02-05 00:37:00,
2013-02-04 19:51:00,26.0,24.0,29.92,ENE,61,2.0,5.0,92,0.00,,,0.05,weatherlink.com 1.10,2013-02-05 00:51:00,
2013-02-04 20:08:00,26.0,24.0,29.92,ENE,61,3.0,5.0,92,0.00,,,0.05,weatherlink.com 1.10,2013-02-05 01:08:00,
2013-02-04 20:24:00,26.0,24.0,29.93,ENE,61,3.0,7.0,92,0.00,,,0.05,weatherlink.com 1.10,2013-02-05 01:24:00,
2013-02-04 20:37:00,26.0,24.0,29.93,NE,40,6.0,7.0,91,0.00,,,0.05,weatherlink.com 1.10,2013-02-05 01:37:00,
2013-02-04 20:52:00,25.8,24.0,29.94,NNE,19,4.0,8.0,91,0.00,,,0.05,weatherlink.com 1.10,2013-02-05 01:52:00,
2013-02-04 21:07:00,25.7,24.0,29.94,NNE,31,6.0,8.0,91,0.00,,,0.05,weatherlink.com 1.10,2013-02-05 02:07:00,
2013-02-04 21:24:00,25.6,23.0,29.95,NNE,14,7.0,7.0,91,0.00,,,0.05,weatherlink.com 1.10,2013-02-05 02:24:00,
2013-02-04 21:37:00,25.7,24.0,29.95,North,5,4.0,6.0,91,0.00,,,0.05,weatherlink.com 1.10,2013-02-05 02:37:00,
2013-02-04 21:54:00,25.7,24.0,29.95,North,5,2.0,6.0,91,0.00,,,0.05,weatherlink.com 1.10,2013-02-05 02:54:00,
2013-02-04 22:08:00,25.7,24.0,29.94,North,5,2.0,4.0,91,0.00,,,0.05,weatherlink.com 1.10,2013-02-05 03:08:00,
2013-02-04 22:24:00,25.7,24.0,29.93,North,5,2.0,6.0,91,0.00,,,0.05,weatherlink.com 1.10,2013-02-05 03:24:00,
2013-02-04 22:39:00,25.5,23.0,29.93,North,10,4.0,8.0,91,0.00,,,0.05,weatherlink.com 1.10,2013-02-05 03:39:00,
2013-02-04 22:55:00,25.4,23.0,29.95,North,5,3.0,8.0,91,0.00,,,0.05,weatherlink.com 1.10,2013-02-05 03:55:00,
2013-02-04 23:09:00,25.3,23.0,29.95,North,355,2.0,7.0,91,0.00,,,0.05,weatherlink.com 1.10,2013-02-05 04:09:00,
2013-02-04 23:27:00,25.2,23.0,29.95,North,360,3.0,8.0,91,0.00,,,0.05,weatherlink.com 1.10,2013-02-05 04:27:00,
2013-02-04 23:39:00,25.2,23.0,29.96,North,350,5.0,7.0,91,0.00,,,0.05,weatherlink.com 1.10,2013-02-05 04:39:00,
2013-02-04 23:56:00,25.2,23.0,29.96,North,355,1.0,5.0,91,0.00,,,0.05,weatherlink.com 1.10,2013-02-05 04:56:00,